Time,TemperatureF,DewpointF,PressureIn,WindDirection,WindDirectionDegrees,WindSpeedMPH,WindSpeedGustMPH,Humidity,HourlyPrecipIn,Conditions,Clouds,dailyrainin,SoftwareType,DateUTC
2013-02-04 00:04:00,21.2,17.1,29.87,SSW,196,19.0,19.0,84,0.00,CLR,CLR,0.00,WeatherDisplay:10.34,2013-02-04 07:04:00,
2013-02-04 00:09:00,22.3,17.4,29.86,NE,44,6.0,7.0,81,0.00,CLR,CLR,0.00,WeatherDisplay:10.34,2013-02-04 07:09:00,
2013-02-04 00:14:00,21.5,16.3,29.86,NE,35,3.0,3.0,80,0.00,CLR,CLR,0.00,WeatherDisplay:10.34,2013-02-04 07:14:00,
2013-02-04 00:19:00,20.8,15.9,29.86,ESE,103,13.0,17.0,81,0.00,CLR,CLR,0.00,WeatherDisplay:10.34,2013-02-04 07:19:00,
2013-02-04 00:24:00,21.5,16.6,29.86,NE,46,7.0,8.0,81,0.00,CLR,CLR,0.00,WeatherDisplay:10.34,2013-02-04 07:24:00,
2013-02-04 00:29:00,21.2,16.3,29.86,ESE,113,7.0,7.0,81,0.00,CLR,CLR,0.00,WeatherDisplay:10.34,2013-02-04 07:29:00,
2013-02-04 00:34:00,20.6,15.7,29.86,NNW,348,5.0,7.0,81,0.00,CLR,CLR,0.00,WeatherDisplay:10.34,2013-02-04 07:34:00,
2013-02-04 00:39:00,20.3,15.4,29.86,ENE,60,6.0,13.0,81,0.00,CLR,CLR,0.00,WeatherDisplay:10.34,2013-02-04 07:39:00,
2013-02-04 00:44:00,20.1,15.5,29.86,NNE,33,7.0,7.0,82,0.00,CLR,CLR,0.00,WeatherDisplay:10.34,2013-02-04 07:44:00,
2013-02-04 00:49:00,20.0,15.7,29.86,NE,53,4.0,4.0,83,0.00,CLR,CLR,0.00,WeatherDisplay:10.34,2013-02-04 07:49:00,
2013-02-04 00:54:00,19.9,15.6,29.86,ENE,57,0.0,0.0,83,0.00,CLR,CLR,0.00,WeatherDisplay:10.34,2013-02-04 07:54:00,
2013-02-04 00:59:00,19.7,15.1,29.86,ENE,65,9.0,10.0,82,0.00,CLR,CLR,0.00,WeatherDisplay:10.34,2013-02-04 07:59:00,
2013-02-04 01:04:00,19.3,15.0,29.86,East,92,6.0,8.0,83,0.00,CLR,CLR,0.00,WeatherDisplay:10.34,2013-02-04 08:04:00,
2013-02-04 01:09:00,19.1,14.8,29.85,NNE,32,0.0,0.0,83,0.00,CLR,CLR,0.00,WeatherDisplay:10.34,2013-02-04 08:09:00,
2013-02-04 01:14:00,18.8,14.5,29.85,NNE,26,4.0,4.0,83,0.00,CLR,CLR,0.00,WeatherDisplay:10.34,2013-02-04 08:14:00,
2013-02-04 01:19:00,18.7,14.7,29.85,ENE,70,4.0,7.0,84,0.00,CLR,CLR,0.00,WeatherDisplay:10.34,2013-02-04 08:19:00,
2013-02-04 01:24:00,18.6,14.6,29.85,North,10,1.0,1.0,84,0.00,CLR,CLR,0.00,WeatherDisplay:10.34,2013-02-04 08:24:00,
2013-02-04 01:29:00,18.4,14.4,29.85,ESE,111,2.0,2.0,84,0.00,CLR,CLR,0.00,WeatherDisplay:10.34,2013-02-04 08:29:00,
2013-02-04 01:34:00,18.3,14.3,29.85,ENE,75,0.0,0.0,84,0.00,CLR,CLR,0.00,WeatherDisplay:10.34,2013-02-04 08:34:00,
2013-02-04 01:39:00,18.2,14.2,29.85,North,355,1.0,2.0,84,0.00,CLR,CLR,0.00,WeatherDisplay:10.34,2013-02-04 08:39:00,
2013-02-04 01:44:00,17.9,13.9,29.85,North,350,1.0,2.0,84,0.00,CLR,CLR,0.00,WeatherDisplay:10.34,2013-02-04 08:44:00,
2013-02-04 01:49:00,17.5,13.2,29.85,NNW,327,1.0,1.0,83,0.00,CLR,CLR,0.00,WeatherDisplay:10.34,2013-02-04 08:49:00,
2013-02-04 01:54:00,17.1,13.1,29.85,ENE,60,0.0,0.0,84,0.00,CLR,CLR,0.00,WeatherDisplay:10.34,2013-02-04 08:54:00,
2013-02-04 01:59:00,17.1,13.1,29.85,NE,51,2.0,2.0,84,0.00,CLR,CLR,0.00,WeatherDisplay:10.34,2013-02-04 08:59:00,
2013-02-04 02:04:00,17.2,13.5,29.85,ESE,109,0.0,0.0,85,0.00,CLR,CLR,0.00,WeatherDisplay:10.34,2013-02-04 09:04:00,
2013-02-04 02:09:00,17.2,13.5,29.85,WNW,302,0.0,0.0,85,0.00,CLR,CLR,0.00,WeatherDisplay:10.34,2013-02-04 09:09:00,
2013-02-04 02:14:00,17.2,13.5,29.85,East,83,8.0,8.0,85,0.00,CLR,CLR,0.00,WeatherDisplay:10.34,2013-02-04 09:14:00,
2013-02-04 02:19:00,17.2,13.5,29.85,NW,319,2.0,2.0,85,0.00,CLR,CLR,0.00,WeatherDisplay:10.34,2013-02-04 09:19:00,
2013-02-04 02:24:00,17.1,13.4,29.85,NNW,333,1.0,3.0,85,0.00,CLR,CLR,0.00,WeatherDisplay:10.34,2013-02-04 09:24:00,
2013-02-04 02:29:00,16.7,12.7,29.85,NW,313,2.0,2.0,84,0.00,CLR,CLR,0.00,WeatherDisplay:10.34,2013-02-04 09:29:00,
2013-02-04 02:34:00,16.6,12.9,29.85,East,83,0.0,1.0,85,0.00,CLR,CLR,0.00,WeatherDisplay:10.34,2013-02-04 09:34:00,
2013-02-04 02:39:00,16.6,12.9,29.85,NE,45,2.0,2.0,85,0.00,CLR,CLR,0.00,WeatherDisplay:10.34,2013-02-04 09:39:00,
2013-02-04 02:44:00,16.7,13.0,29.85,NNE,16,2.0,3.0,85,0.00,CLR,CLR,0.00,WeatherDisplay:10.34,2013-02-04 09:44:00,
2013-02-04 02:49:00,16.6,12.9,29.85,NNW,335,1.0,1.0,85,0.00,CLR,CLR,0.00,WeatherDisplay:10.34,2013-02-04 09:49:00,
2013-02-04 02:54:00,16.4,12.7,29.84,NNW,334,5.0,5.0,85,0.00,CLR,CLR,0.00,WeatherDisplay:10.34,2013-02-04 09:54:00,
2013-02-04 02:59:00,16.3,12.6,29.84,North,350,6.0,7.0,85,0.00,CLR,CLR,0.00,WeatherDisplay:10.34,2013-02-04 09:59:00,
2013-02-04 03:04:00,16.2,12.5,29.84,North,360,2.0,3.0,85,0.00,CLR,CLR,0.00,WeatherDisplay:10.34,2013-02-04 10:04:00,
2013-02-04 03:09:00,16.3,12.8,29.84,NNW,342,9.0,9.0,86,0.00,CLR,CLR,0.00,WeatherDisplay:10.34,2013-02-04 10:09:00,
2013-02-04 03:14:00,16.3,12.8,29.84,NNE,17,5.0,5.0,86,0.00,CLR,CLR,0.00,WeatherDisplay:10.34,2013-02-04 10:14:00,
2013-02-04 03:19:00,16.4,12.9,29.84,NE,36,3.0,3.0,86,0.00,CLR,CLR,0.00,WeatherDisplay:10.34,2013-02-04 10:19:00,
2013-02-04 03:24:00,16.6,13.1,29.84,NNE,17,1.0,1.0,86,0.00,CLR,CLR,0.00,WeatherDisplay:10.34,2013-02-04 10:24:00,
2013-02-04 03:29:00,16.7,13.2,29.84,East,88,7.0,7.0,86,0.00,CLR,CLR,0.00,WeatherDisplay:10.34,2013-02-04 10:29:00,
2013-02-04 03:34:00,16.9,13.7,29.83,East,79,4.0,5.0,87,0.00,CLR,CLR,0.00,WeatherDisplay:10.34,2013-02-04 10:34:00,
2013-02-04 03:39:00,17.1,13.9,29.83,NE,52,2.0,2.0,87,0.00,CLR,CLR,0.00,WeatherDisplay:10.34,2013-02-04 10:39:00,
2013-02-04 03:44:00,17.4,14.2,29.83,NNE,25,1.0,1.0,87,0.00,CLR,CLR,0.00,WeatherDisplay:10.34,2013-02-04 10:44:00,
2013-02-04 03:49:00,17.7,14.5,29.83,West,267,10.0,17.0,87,0.00,CLR,CLR,0.00,WeatherDisplay:10.34,2013-02-04 10:49:00,
2013-02-04 03:54:00,18.0,14.8,29.83,ENE,74,4.0,5.0,87,0.00,CLR,CLR,0.00,WeatherDisplay:10.34,2013-02-04 10:54:00,
2013-02-04 03:59:00,18.2,15.0,29.83,NNE,24,4.0,4.0,87,0.00,CLR,CLR,0.00,WeatherDisplay:10.34,2013-02-04 10:59:00,
2013-02-04 04:04:00,18.3,15.1,29.83,ENE,69,6.0,7.0,87,0.00,CLR,CLR,0.00,WeatherDisplay:10.34,2013-02-04 11:04:00,
2013-02-04 04:09:00,18.6,15.4,29.83,North,5,2.0,3.0,87,0.00,CLR,CLR,0.00,WeatherDisplay:10.34,2013-02-04 11:09:00,
2013-02-04 04:14:00,18.8,15.6,29.83,NNE,28,1.0,2.0,87,0.00,CLR,CLR,0.00,WeatherDisplay:10.34,2013-02-04 11:14:00,
2013-02-04 04:19:00,19.0,15.5,29.83,ESE,111,8.0,9.0,86,0.00,CLR,CLR,0.00,WeatherDisplay:10.34,2013-02-04 11:19:00,
2013-02-04 04:24:00,19.2,15.7,29.83,North,355,5.0,8.0,86,0.00,CLR,CLR,0.00,WeatherDisplay:10.34,2013-02-04 11:24:00,
2013-02-04 04:29:00,19.3,15.8,29.83,North,355,3.0,3.0,86,0.00,CLR,CLR,0.00,WeatherDisplay:10.34,2013-02-04 11:29:00,
2013-02-04 04:34:00,19.3,15.8,29.83,North,9,5.0,9.0,86,0.00,CLR,CLR,0.00,WeatherDisplay:10.34,2013-02-04 11:34:00,
2013-02-04 04:39:00,19.4,15.9,29.83,East,79,1.0,2.0,86,0.00,CLR,CLR,0.00,WeatherDisplay:10.34,2013-02-04 11:39:00,
2013-02-04 04:44:00,19.5,16.0,29.83,ENE,63,4.0,7.0,86,0.00,CLR,CLR,0.00,WeatherDisplay:10.34,2013-02-04 11:44:00,
2013-02-04 04:49:00,19.6,16.1,29.83,East,91,6.0,7.0,86,0.00,CLR,CLR,0.00,WeatherDisplay:10.34,2013-02-04 11:49:00,
2013-02-04 04:54:00,19.7,16.2,29.81,NE,51,3.0,7.0,86,0.00,CLR,CLR,0.00,WeatherDisplay:10.34,2013-02-04 11:54:00,
2013-02-04 04:59:00,19.9,16.4,29.81,ENE,71,8.0,14.0,86,0.00,CLR,CLR,0.00,WeatherDisplay:10.34,2013-02-04 11:59:00,
2013-02-04 05:04:00,21.2,17.4,29.81,NE,45,8.0,10.0,85,0.00,CLR,CLR,0.00,WeatherDisplay:10.34,2013-02-04 12:04:00,
2013-02-04 05:09:00,22.5,18.7,29.81,ENE,61,4.0,7.0,85,0.00,CLR,CLR,0.00,WeatherDisplay:10.34,2013-02-04 12:09:00,
2013-02-04 05:14:00,24.1,19.7,29.82,NE,40,5.0,5.0,83,0.00,CLR,CLR,0.00,WeatherDisplay:10.34,2013-02-04 12:14:00,
2013-02-04 05:19:00,24.9,19.9,29.82,South,179,1.0,2.0,81,0.00,CLR,CLR,0.00,WeatherDisplay:10.34,2013-02-04 12:19:00,
2013-02-04 05:24:00,25.5,19.9,29.82,NNE,13,3.0,3.0,79,0.00,CLR,CLR,0.00,WeatherDisplay:10.34,2013-02-04 12:24:00,
2013-02-04 05:30:00,25.6,19.4,29.82,WSW,249,2.0,0.0,77,0.00,CLR,CLR,0.00,WeatherDisplay:10.34,2013-02-04 12:30:00,
2013-02-04 05:35:00,27.2,21.2,29.82,SW,236,20.0,24.0,78,0.00,CLR,CLR,0.00,WeatherDisplay:10.34,2013-02-04 12:35:00,
2013-02-04 05:40:00,31.3,23.0,29.82,WNW,284,23.0,0.0,71,0.00,CLR,CLR,0.00,WeatherDisplay:10.34,2013-02-04 12:40:00,
2013-02-04 05:45:00,34.4,23.5,29.81,WSW,242,17.0,24.0,64,0.00,CLR,CLR,0.00,WeatherDisplay:10.34,2013-02-04 12:45:00,
2013-02-04 05:50:00,35.6,23.1,29.81,West,278,17.0,0.0,60,0.00,CLR,CLR,0.00,WeatherDisplay:10.34,2013-02-04 12:50:00,
2013-02-04 05:55:00,36.1,22.3,29.81,WSW,248,19.0,22.0,57,0.00,CLR,CLR,0.00,WeatherDisplay:10.34,2013-02-04 12:55:00,
2013-02-04 06:00:00,36.5,22.3,29.80,SW,236,25.0,25.0,56,0.00,CLR,CLR,0.00,WeatherDisplay:10.34,2013-02-04 13:00:00,
2013-02-04 06:05:00,36.8,22.1,29.80,SW,219,21.0,21.0,55,0.00,CLR,CLR,0.00,WeatherDisplay:10.34,2013-02-04 13:05:00,
2013-02-04 06:10:00,36.8,22.1,29.80,SW,236,21.0,21.0,55,0.00,CLR,CLR,0.00,WeatherDisplay:10.34,2013-02-04 13:10:00,
2013-02-04 06:15:00,37.6,21.1,29.79,WSW,251,23.0,23.0,51,0.00,CLR,CLR,0.00,WeatherDisplay:10.34,2013-02-04 13:15:00,
2013-02-04 06:20:00,37.9,20.4,29.80,WSW,242,20.0,0.0,49,0.00,CLR,CLR,0.00,WeatherDisplay:10.34,2013-02-04 13:20:00,
2013-02-04 06:25:00,37.9,21.4,29.79,SW,231,22.0,25.0,51,0.00,CLR,CLR,0.00,WeatherDisplay:10.34,2013-02-04 13:25:00,
2013-02-04 06:30:00,37.6,21.1,29.78,SW,232,20.0,23.0,51,0.00,CLR,CLR,0.00,WeatherDisplay:10.34,2013-02-04 13:30:00,
2013-02-04 06:35:00,37.7,20.2,29.78,WSW,249,26.0,26.0,49,0.00,CLR,CLR,0.00,WeatherDisplay:10.34,2013-02-04 13:35:00,
2013-02-04 06:40:00,38.3,20.3,29.79,SW,225,22.0,23.0,48,0.00,CLR,CLR,0.00,WeatherDisplay:10.34,2013-02-04 13:40:00,
2013-02-04 06:45:00,38.5,20.5,29.79,SW,234,19.0,21.0,48,0.00,CLR,CLR,0.00,WeatherDisplay:10.34,2013-02-04 13:45:00,
2013-02-04 06:50:00,38.3,20.3,29.78,South,187,20.0,20.0,48,0.00,CLR,CLR,0.00,WeatherDisplay:10.34,2013-02-04 13:50:00,
2013-02-04 06:55:00,38.4,20.4,29.79,SW,223,22.0,23.0,48,0.00,CLR,CLR,0.00,WeatherDisplay:10.34,2013-02-04 13:55:00,
2013-02-04 07:00:00,38.4,20.4,29.79,SW,226,23.0,23.0,48,0.00,CLR,CLR,0.00,WeatherDisplay:10.34,2013-02-04 14:00:00,
2013-02-04 07:05:00,38.5,19.5,29.80,WSW,254,28.0,28.0,46,0.00,OVC,OVC,0.00,WeatherDisplay:10.34,2013-02-04 14:05:00,
2013-02-04 07:10:00,38.5,20.0,29.80,SW,230,18.0,0.0,47,0.00,OVC,OVC,0.00,WeatherDisplay:10.34,2013-02-04 14:10:00,
2013-02-04 07:15:00,38.4,20.4,29.80,SW,214,19.0,19.0,48,0.00,OVC,OVC,0.00,WeatherDisplay:10.34,2013-02-04 14:15:00,
2013-02-04 07:20:00,38.6,20.1,29.79,WSW,244,18.0,18.0,47,0.00,OVC,OVC,0.00,WeatherDisplay:10.34,2013-02-04 14:20:00,
2013-02-04 07:25:00,38.7,20.2,29.79,SW,219,24.0,25.0,47,0.00,OVC,OVC,0.00,WeatherDisplay:10.34,2013-02-04 14:25:00,
2013-02-04 07:30:00,38.8,19.8,29.78,WSW,245,28.0,35.0,46,0.00,OVC,OVC,0.00,WeatherDisplay:10.34,2013-02-04 14:30:00,
2013-02-04 07:35:00,39.2,20.1,29.78,SW,217,25.0,25.0,46,0.00,OVC,OVC,0.00,WeatherDisplay:10.34,2013-02-04 14:35:00,
2013-02-04 07:40:00,39.4,19.8,29.78,SW,236,27.0,27.0,45,0.00,CLR,CLR,0.00,WeatherDisplay:10.34,2013-02-04 14:40:00,
2013-02-04 07:45:00,39.5,19.9,29.78,WSW,252,29.0,29.0,45,0.00,BKN,BKN,0.00,WeatherDisplay:10.34,2013-02-04 14:45:00,
2013-02-04 07:50:00,39.5,20.4,29.79,West,260,24.0,24.0,46,0.00,BKN,BKN,0.00,WeatherDisplay:10.34,2013-02-04 14:50:00,
2013-02-04 07:55:00,39.4,19.8,29.79,West,272,25.0,28.0,45,0.00,OVC,OVC,0.00,WeatherDisplay:10.34,2013-02-04 14:55:00,
2013-02-04 08:00:00,39.7,19.5,29.79,West,267,25.0,32.0,44,0.00,BKN,BKN,0.00,WeatherDisplay:10.34,2013-02-04 15:00:00,
2013-02-04 08:05:00,40.1,19.4,29.79,SW,227,29.0,29.0,43,0.00,BKN,BKN,0.00,WeatherDisplay:10.34,2013-02-04 15:05:00,
2013-02-04 08:10:00,40.1,20.4,29.80,WNW,284,21.0,21.0,45,0.00,SCT,SCT,0.00,WeatherDisplay:10.34,2013-02-04 15:10:00,
2013-02-04 08:15:00,40.1,20.4,29.80,SW,234,18.0,18.0,45,0.00,SCT,SCT,0.00,WeatherDisplay:10.34,2013-02-04 15:15:00,
2013-02-04 08:20:00,40.5,20.3,29.79,WSW,242,26.0,26.0,44,0.00,SCT,SCT,0.00,WeatherDisplay:10.34,2013-02-04 15:20:00,
2013-02-04 08:25:00,40.6,20.9,29.79,SW,225,30.0,30.0,45,0.00,FEW,FEW,0.00,WeatherDisplay:10.34,2013-02-04 15:25:00,
2013-02-04 08:30:00,40.7,20.5,29.79,WSW,257,27.0,27.0,44,0.00,CLR,CLR,0.00,WeatherDisplay:10.34,2013-02-04 15:30:00,
2013-02-04 08:35:00,40.9,20.6,29.79,WSW,255,21.0,21.0,44,0.00,SCT,SCT,0.00,WeatherDisplay:10.34,2013-02-04 15:35:00,
2013-02-04 08:40:00,40.9,20.6,29.78,WSW,237,30.0,30.0,44,0.00,SCT,SCT,0.00,WeatherDisplay:10.34,2013-02-04 15:40:00,
2013-02-04 08:45:00,40.9,21.2,29.78,WSW,254,23.0,25.0,45,0.00,BKN,BKN,0.00,WeatherDisplay:10.34,2013-02-04 15:45:00,
2013-02-04 08:50:00,40.6,20.9,29.79,WSW,248,25.0,25.0,45,0.00,OVC,OVC,0.00,WeatherDisplay:10.34,2013-02-04 15:50:00,
2013-02-04 08:55:00,40.4,20.7,29.79,SW,234,24.0,24.0,45,0.00,BKN,BKN,0.00,WeatherDisplay:10.34,2013-02-04 15:55:00,
2013-02-04 09:00:00,40.3,21.6,29.80,SSW,213,25.0,25.0,47,0.00,BKN,BKN,0.00,WeatherDisplay:10.34,2013-02-04 16:00:00,
2013-02-04 09:05:00,40.1,21.5,29.80,SW,227,26.0,28.0,47,0.00,BKN,BKN,0.00,WeatherDisplay:10.34,2013-02-04 16:05:00,
2013-02-04 09:10:00,40.0,21.9,29.80,SW,232,22.0,22.0,48,0.00,BKN,BKN,0.00,WeatherDisplay:10.34,2013-02-04 16:10:00,
2013-02-04 09:15:00,40.0,21.9,29.80,SW,221,21.0,21.0,48,0.00,SCT,SCT,0.00,WeatherDisplay:10.34,2013-02-04 16:15:00,
2013-02-04 09:20:00,40.2,21.6,29.80,SW,215,17.0,28.0,47,0.00,SCT,SCT,0.00,WeatherDisplay:10.34,2013-02-04 16:20:00,
2013-02-04 09:25:00,40.4,21.7,29.80,SW,233,25.0,29.0,47,0.00,SCT,SCT,0.00,WeatherDisplay:10.34,2013-02-04 16:25:00,
2013-02-04 09:30:00,40.5,21.8,29.80,WSW,250,27.0,27.0,47,0.00,SCT,SCT,0.00,WeatherDisplay:10.34,2013-02-04 16:30:00,
2013-02-04 09:35:00,40.8,22.1,29.79,SW,229,19.0,19.0,47,0.00,SCT,SCT,0.00,WeatherDisplay:10.34,2013-02-04 16:35:00,
2013-02-04 09:40:00,40.8,21.6,29.78,WSW,249,24.0,24.0,46,0.00,BKN,BKN,0.00,WeatherDisplay:10.34,2013-02-04 16:40:00,
2013-02-04 09:45:00,40.9,21.7,29.78,SSW,206,23.0,26.0,46,0.00,BKN,BKN,0.00,WeatherDisplay:10.34,2013-02-04 16:45:00,
2013-02-04 09:50:00,41.1,20.8,29.78,WSW,247,29.0,29.0,44,0.00,BKN,BKN,0.00,WeatherDisplay:10.34,2013-02-04 16:50:00,
2013-02-04 09:55:00,41.4,21.1,29.78,SW,221,22.0,24.0,44,0.00,BKN,BKN,0.00,WeatherDisplay:10.34,2013-02-04 16:55:00,
2013-02-04 10:00:00,41.6,20.7,29.80,West,268,18.0,18.0,43,0.00,BKN,BKN,0.00,WeatherDisplay:10.34,2013-02-04 17:00:00,
2013-02-04 10:05:00,41.9,21.0,29.79,West,260,19.0,24.0,43,0.00,SCT,SCT,0.00,WeatherDisplay:10.34,2013-02-04 17:05:00,
2013-02-04 10:10:00,42.3,20.8,29.79,WSW,258,21.0,21.0,42,0.00,SCT,SCT,0.00,WeatherDisplay:10.34,2013-02-04 17:10:00,
2013-02-04 10:15:00,42.8,21.8,29.79,WSW,248,18.0,21.0,43,0.00,CLR,CLR,0.00,WeatherDisplay:10.34,2013-02-04 17:15:00,
2013-02-04 10:20:00,43.4,21.2,29.79,WSW,240,28.0,28.0,41,0.00,SCT,SCT,0.00,WeatherDisplay:10.34,2013-02-04 17:20:00,
2013-02-04 10:25:00,43.6,21.4,29.79,SW,223,24.0,24.0,41,0.00,SCT,SCT,0.00,WeatherDisplay:10.34,2013-02-04 17:25:00,
2013-02-04 10:30:00,43.6,22.0,29.79,SW,221,20.0,25.0,42,0.00,CLR,CLR,0.00,WeatherDisplay:10.34,2013-02-04 17:30:00,
2013-02-04 10:35:00,44.0,21.8,29.79,West,259,22.0,22.0,41,0.00,FEW,FEW,0.00,WeatherDisplay:10.34,2013-02-04 17:35:00,
2013-02-04 10:40:00,44.3,22.1,29.78,SW,233,22.0,28.0,41,0.00,CLR,CLR,0.00,WeatherDisplay:10.34,2013-02-04 17:40:00,
2013-02-04 10:45:00,44.1,22.4,29.78,SW,236,24.0,25.0,42,0.00,FEW,FEW,0.00,WeatherDisplay:10.34,2013-02-04 17:45:00,
2013-02-04 10:50:00,43.8,22.2,29.78,WSW,245,29.0,0.0,42,0.00,SCT,SCT,0.00,WeatherDisplay:10.34,2013-02-04 17:50:00,
2013-02-04 10:55:00,43.6,22.0,29.78,WSW,253,24.0,29.0,42,0.00,SCT,SCT,0.00,WeatherDisplay:10.34,2013-02-04 17:55:00,
2013-02-04 11:00:00,43.6,22.0,29.79,West,263,27.0,27.0,42,0.00,FEW,FEW,0.00,WeatherDisplay:10.34,2013-02-04 18:00:00,
2013-02-04 11:05:00,44.1,22.4,29.79,SSW,213,28.0,28.0,42,0.00,CLR,CLR,0.00,WeatherDisplay:10.34,2013-02-04 18:05:00,
2013-02-04 11:10:00,44.8,22.5,29.78,West,264,25.0,26.0,41,0.00,CLR,CLR,0.00,WeatherDisplay:10.34,2013-02-04 18:10:00,
2013-02-04 11:15:00,45.1,22.8,29.78,West,263,24.0,26.0,41,0.00,CLR,CLR,0.00,WeatherDisplay:10.34,2013-02-04 18:15:00,
2013-02-04 11:20:00,45.1,22.2,29.77,WSW,254,23.0,23.0,40,0.00,CLR,CLR,0.00,WeatherDisplay:10.34,2013-02-04 18:20:00,
2013-02-04 11:25:00,45.0,22.7,29.77,WSW,254,23.0,23.0,41,0.00,CLR,CLR,0.00,WeatherDisplay:10.34,2013-02-04 18:25:00,
2013-02-04 11:30:00,45.3,23.5,29.77,WSW,244,18.0,18.0,42,0.00,CLR,CLR,0.00,WeatherDisplay:10.34,2013-02-04 18:30:00,
2013-02-04 11:35:00,45.6,24.4,29.77,WSW,246,26.0,36.0,43,0.00,CLR,CLR,0.00,WeatherDisplay:10.34,2013-02-04 18:35:00,
2013-02-04 11:40:00,45.9,23.5,29.77,WSW,248,29.0,0.0,41,0.00,CLR,CLR,0.00,WeatherDisplay:10.34,2013-02-04 18:40:00,
2013-02-04 11:45:00,46.0,23.6,29.77,WSW,240,30.0,33.0,41,0.00,CLR,CLR,0.00,WeatherDisplay:10.34,2013-02-04 18:45:00,
2013-02-04 11:50:00,46.1,23.7,29.77,West,259,20.0,22.0,41,0.00,CLR,CLR,0.00,WeatherDisplay:10.34,2013-02-04 18:50:00,
2013-02-04 11:55:00,46.3,23.3,29.77,WSW,252,25.0,31.0,40,0.00,CLR,CLR,0.00,WeatherDisplay:10.34,2013-02-04 18:55:00,
2013-02-04 12:00:00,46.3,24.4,29.78,WSW,242,25.0,32.0,42,0.00,CLR,CLR,0.00,WeatherDisplay:10.34,2013-02-04 19:00:00,
2013-02-04 12:05:00,46.4,23.4,29.77,SW,236,24.0,31.0,40,0.00,CLR,CLR,0.00,WeatherDisplay:10.34,2013-02-04 19:05:00,
2013-02-04 12:10:00,46.4,23.9,29.77,SW,230,28.0,28.0,41,0.00,CLR,CLR,0.00,WeatherDisplay:10.34,2013-02-04 19:10:00,
2013-02-04 12:15:00,46.3,23.9,29.77,WSW,244,15.0,31.0,41,0.00,CLR,CLR,0.00,WeatherDisplay:10.34,2013-02-04 19:15:00,
2013-02-04 12:20:00,46.4,22.8,29.77,WSW,240,24.0,24.0,39,0.00,CLR,CLR,0.00,WeatherDisplay:10.34,2013-02-04 19:20:00,
2013-02-04 12:25:00,46.7,24.2,29.77,West,261,25.0,26.0,41,0.00,CLR,CLR,0.00,WeatherDisplay:10.34,2013-02-04 19:25:00,
2013-02-04 12:30:00,47.0,23.3,29.77,WNW,287,26.0,26.0,39,0.00,CLR,CLR,0.00,WeatherDisplay:10.34,2013-02-04 19:30:00,
2013-02-04 12:35:00,47.1,22.8,29.77,SW,230,32.0,32.0,38,0.00,CLR,CLR,0.00,WeatherDisplay:10.34,2013-02-04 19:35:00,
2013-02-04 12:40:00,47.1,22.8,29.76,WSW,254,26.0,26.0,38,0.00,CLR,CLR,0.00,WeatherDisplay:10.34,2013-02-04 19:40:00,
2013-02-04 12:45:00,47.1,23.4,29.76,SW,229,20.0,22.0,39,0.00,FEW,FEW,0.00,WeatherDisplay:10.34,2013-02-04 19:45:00,
2013-02-04 12:50:00,47.1,22.8,29.76,West,267,21.0,22.0,38,0.00,FEW,FEW,0.00,WeatherDisplay:10.34,2013-02-04 19:50:00,
2013-02-04 12:55:00,47.2,23.5,29.76,WSW,242,25.0,26.0,39,0.00,FEW,FEW,0.00,WeatherDisplay:10.34,2013-02-04 19:55:00,
2013-02-04 13:00:00,47.2,22.9,29.77,WSW,249,21.0,21.0,38,0.00,FEW,FEW,0.00,WeatherDisplay:10.34,2013-02-04 20:00:00,
2013-02-04 13:05:00,47.4,23.7,29.77,WSW,252,17.0,17.0,39,0.00,FEW,FEW,0.00,WeatherDisplay:10.34,2013-02-04 20:05:00,
2013-02-04 13:10:00,47.4,23.0,29.77,WSW,250,17.0,17.0,38,0.00,FEW,FEW,0.00,WeatherDisplay:10.34,2013-02-04 20:10:00,
2013-02-04 13:15:00,47.4,24.3,29.77,West,276,6.0,6.0,40,0.00,FEW,FEW,0.00,WeatherDisplay:10.34,2013-02-04 20:15:00,
2013-02-04 13:20:00,45.4,25.3,29.77,North,360,9.0,9.0,45,0.00,FEW,FEW,0.00,WeatherDisplay:10.34,2013-02-04 20:20:00,
2013-02-04 13:25:00,43.2,25.3,29.76,NE,38,7.0,8.0,49,0.00,CLR,CLR,0.00,WeatherDisplay:10.34,2013-02-04 20:25:00,
2013-02-04 13:30:00,42.5,25.6,29.76,ENE,63,8.0,10.0,51,0.00,FEW,FEW,0.00,WeatherDisplay:10.34,2013-02-04 20:30:00,
2013-02-04 13:35:00,42.5,25.1,29.76,West,276,8.0,10.0,50,0.00,CLR,CLR,0.00,WeatherDisplay:10.34,2013-02-04 20:35:00,
2013-02-04 13:40:00,42.0,25.6,29.76,East,90,7.0,7.0,52,0.00,CLR,CLR,0.00,WeatherDisplay:10.34,2013-02-04 20:40:00,
2013-02-04 13:46:00,41.4,25.1,29.76,ESE,106,10.0,10.0,52,0.00,CLR,CLR,0.00,WeatherDisplay:10.34,2013-02-04 20:46:00,
2013-02-04 13:51:00,40.3,25.0,29.76,ENE,71,1.0,2.0,54,0.00,FEW,FEW,0.00,WeatherDisplay:10.34,2013-02-04 20:51:00,
2013-02-04 13:56:00,40.4,25.1,29.76,NNE,23,14.0,17.0,54,0.00,CLR,CLR,0.00,WeatherDisplay:10.34,2013-02-04 20:56:00,
2013-02-04 14:01:00,38.9,25.4,29.76,NNE,23,3.0,5.0,58,0.00,SCT,SCT,0.00,WeatherDisplay:10.34,2013-02-04 21:01:00,
2013-02-04 14:07:00,38.7,24.8,29.76,NE,46,7.0,8.0,57,0.00,SCT,SCT,0.00,WeatherDisplay:10.34,2013-02-04 21:07:00,
2013-02-04 14:12:00,37.9,24.8,29.77,North,10,6.0,9.0,59,0.00,SCT,SCT,0.00,WeatherDisplay:10.34,2013-02-04 21:12:00,
2013-02-04 14:17:00,36.3,24.5,29.77,NNE,29,11.0,11.0,62,0.00,BKN,BKN,0.00,WeatherDisplay:10.34,2013-02-04 21:17:00,
2013-02-04 14:22:00,35.3,24.0,29.77,NE,34,10.0,10.0,63,0.00,OVC,OVC,0.00,WeatherDisplay:10.34,2013-02-04 21:22:00,
2013-02-04 14:27:00,34.8,23.9,29.77,NE,50,9.0,12.0,64,0.00,OVC,OVC,0.00,WeatherDisplay:10.34,2013-02-04 21:27:00,
2013-02-04 14:32:00,34.5,23.9,29.76,NE,41,10.0,10.0,65,0.00,BKN,BKN,0.00,WeatherDisplay:10.34,2013-02-04 21:32:00,
2013-02-04 14:37:00,34.8,24.6,29.76,North,355,7.0,8.0,66,0.00,FEW,FEW,0.00,WeatherDisplay:10.34,2013-02-04 21:37:00,
2013-02-04 14:42:00,35.4,24.8,29.76,NE,40,10.0,10.0,65,0.00,BKN,BKN,0.00,WeatherDisplay:10.34,2013-02-04 21:42:00,
2013-02-04 14:47:00,35.5,25.3,29.76,NNE,17,13.0,15.0,66,0.00,BKN,BKN,0.00,WeatherDisplay:10.34,2013-02-04 21:47:00,
2013-02-04 14:52:00,35.6,25.0,29.76,NE,48,14.0,15.0,65,0.00,SCT,SCT,0.00,WeatherDisplay:10.34,2013-02-04 21:52:00,
2013-02-04 14:57:00,35.1,24.1,29.76,NE,41,12.0,13.0,64,0.00,SCT,SCT,0.00,WeatherDisplay:10.34,2013-02-04 21:57:00,
2013-02-04 15:02:00,34.8,24.2,29.76,NE,41,1.0,1.0,65,0.00,SCT,SCT,0.00,WeatherDisplay:10.34,2013-02-04 22:02:00,
2013-02-04 15:07:00,35.2,24.6,29.76,WNW,293,3.0,5.0,65,0.00,FEW,FEW,0.00,WeatherDisplay:10.34,2013-02-04 22:07:00,
2013-02-04 15:12:00,36.5,25.1,29.77,NW,316,3.0,3.0,63,0.00,FEW,FEW,0.00,WeatherDisplay:10.34,2013-02-04 22:12:00,
2013-02-04 15:17:00,37.5,24.9,29.77,SE,126,5.0,10.0,60,0.00,SCT,SCT,0.00,WeatherDisplay:10.34,2013-02-04 22:17:00,
2013-02-04 15:22:00,39.1,24.7,29.77,WSW,249,16.0,20.0,56,0.00,SCT,SCT,0.00,WeatherDisplay:10.34,2013-02-04 22:22:00,
2013-02-04 15:27:00,42.1,24.3,29.76,SW,235,21.0,24.0,49,0.00,SCT,SCT,0.00,WeatherDisplay:10.34,2013-02-04 22:27:00,
2013-02-04 15:32:00,43.7,24.2,29.76,WSW,242,21.0,22.0,46,0.00,FEW,FEW,0.00,WeatherDisplay:10.34,2013-02-04 22:32:00,
2013-02-04 15:37:00,44.7,24.1,29.76,West,267,16.0,17.0,44,0.00,SCT,SCT,0.00,WeatherDisplay:10.34,2013-02-04 22:37:00,
2013-02-04 15:42:00,45.2,24.0,29.76,WSW,253,15.0,17.0,43,0.00,SCT,SCT,0.00,WeatherDisplay:10.34,2013-02-04 22:42:00,
2013-02-04 15:47:00,45.3,24.1,29.76,WSW,247,10.0,10.0,43,0.00,BKN,BKN,0.00,WeatherDisplay:10.34,2013-02-04 22:47:00,
2013-02-04 15:52:00,45.4,23.0,29.76,SW,233,18.0,20.0,41,0.00,BKN,BKN,0.00,WeatherDisplay:10.34,2013-02-04 22:52:00,
2013-02-04 15:57:00,45.5,23.1,29.76,SW,233,26.0,26.0,41,0.00,OVC,OVC,0.00,WeatherDisplay:10.34,2013-02-04 22:57:00,
2013-02-04 16:02:00,45.2,23.4,29.77,WSW,239,20.0,20.0,42,0.00,OVC,OVC,0.00,WeatherDisplay:10.34,2013-02-04 23:02:00,
2013-02-04 16:07:00,45.0,23.3,29.77,SW,214,27.0,35.0,42,0.00,CLR,CLR,0.00,WeatherDisplay:10.34,2013-02-04 23:07:00,
2013-02-04 16:12:00,45.2,23.4,29.76,West,273,23.0,23.0,42,0.00,CLR,CLR,0.00,WeatherDisplay:10.34,2013-02-04 23:12:00,
2013-02-04 16:17:00,45.5,24.3,29.75,WSW,248,25.0,25.0,43,0.00,CLR,CLR,0.00,WeatherDisplay:10.34,2013-02-04 23:17:00,
2013-02-04 16:22:00,45.0,23.3,29.75,WSW,247,27.0,27.0,42,0.00,OVC,OVC,0.00,WeatherDisplay:10.34,2013-02-04 23:22:00,
2013-02-04 16:27:00,44.6,23.5,29.75,SW,234,24.0,26.0,43,0.00,BKN,BKN,0.00,WeatherDisplay:10.34,2013-02-04 23:27:00,
2013-02-04 16:32:00,44.3,23.7,29.74,WSW,237,26.0,28.0,44,0.00,OVC,OVC,0.00,WeatherDisplay:10.34,2013-02-04 23:32:00,
2013-02-04 16:37:00,44.2,23.6,29.74,WSW,249,18.0,22.0,44,0.00,BKN,BKN,0.00,WeatherDisplay:10.34,2013-02-04 23:37:00,
2013-02-04 16:42:00,43.9,23.9,29.74,WSW,244,22.0,28.0,45,0.00,SCT,SCT,0.00,WeatherDisplay:10.34,2013-02-04 23:42:00,
2013-02-04 16:47:00,43.9,23.9,29.74,SW,219,28.0,28.0,45,0.00,CLR,CLR,0.00,WeatherDisplay:10.34,2013-02-04 23:47:00,
2013-02-04 16:52:00,44.1,24.1,29.74,West,264,23.0,31.0,45,0.00,FEW,FEW,0.00,WeatherDisplay:10.34,2013-02-04 23:52:00,
2013-02-04 16:57:00,44.1,24.1,29.74,SW,228,28.0,28.0,45,0.00,CLR,CLR,0.00,WeatherDisplay:10.34,2013-02-04 23:57:00,
2013-02-04 17:02:00,43.9,23.9,29.74,WSW,244,25.0,26.0,45,0.00,CLR,CLR,0.00,WeatherDisplay:10.34,2013-02-05 00:02:00,
2013-02-04 17:07:00,43.6,24.2,29.73,SW,223,20.0,22.0,46,0.00,SCT,SCT,0.00,WeatherDisplay:10.34,2013-02-05 00:07:00,
2013-02-04 17:12:00,43.2,23.8,29.73,SW,222,22.0,22.0,46,0.00,CLR,CLR,0.00,WeatherDisplay:10.34,2013-02-05 00:12:00,
2013-02-04 17:17:00,42.8,23.4,29.74,WSW,242,18.0,18.0,46,0.00,CLR,CLR,0.00,WeatherDisplay:10.34,2013-02-05 00:17:00,
2013-02-04 17:22:00,42.4,23.6,29.73,SW,225,20.0,25.0,47,0.00,OVC,OVC,0.00,WeatherDisplay:10.34,2013-02-05 00:22:00,
2013-02-04 17:27:00,42.1,23.8,29.73,WSW,244,13.0,15.0,48,0.00,OVC,OVC,0.00,WeatherDisplay:10.34,2013-02-05 00:27:00,
2013-02-04 17:32:00,42.1,23.8,29.73,WSW,246,21.0,21.0,48,0.00,OVC,OVC,0.00,WeatherDisplay:10.34,2013-02-05 00:32:00,
2013-02-04 17:37:00,42.1,23.8,29.73,SW,233,16.0,16.0,48,0.00,OVC,OVC,0.00,WeatherDisplay:10.34,2013-02-05 00:37:00,
2013-02-04 17:42:00,42.2,23.4,29.73,WSW,248,16.0,17.0,47,0.00,OVC,OVC,0.00,WeatherDisplay:10.34,2013-02-05 00:42:00,
2013-02-04 17:47:00,42.4,23.1,29.73,WSW,245,23.0,25.0,46,0.00,OVC,OVC,0.00,WeatherDisplay:10.34,2013-02-05 00:47:00,
2013-02-04 17:52:00,42.7,23.8,29.73,SW,214,23.0,25.0,47,0.00,OVC,OVC,0.00,WeatherDisplay:10.34,2013-02-05 00:52:00,
2013-02-04 17:57:00,42.6,23.2,29.74,SW,225,22.0,26.0,46,0.00,OVC,OVC,0.00,WeatherDisplay:10.34,2013-02-05 00:57:00,
2013-02-04 18:02:00,42.5,23.7,29.74,SW,236,16.0,20.0,47,0.00,CLR,CLR,0.00,WeatherDisplay:10.34,2013-02-05 01:02:00,
2013-02-04 18:07:00,42.4,23.6,29.74,West,266,19.0,20.0,47,0.00,CLR,CLR,0.00,WeatherDisplay:10.34,2013-02-05 01:07:00,
2013-02-04 18:12:00,42.3,23.5,29.74,West,269,21.0,26.0,47,0.00,CLR,CLR,0.00,WeatherDisplay:10.34,2013-02-05 01:12:00,
2013-02-04 18:17:00,42.2,23.9,29.74,WSW,252,17.0,23.0,48,0.00,CLR,CLR,0.00,WeatherDisplay:10.34,2013-02-05 01:17:00,
2013-02-04 18:22:00,42.2,23.9,29.74,WSW,257,24.0,29.0,48,0.00,CLR,CLR,0.00,WeatherDisplay:10.34,2013-02-05 01:22:00,
2013-02-04 18:27:00,42.4,23.6,29.74,WSW,237,24.0,28.0,47,0.00,CLR,CLR,0.00,WeatherDisplay:10.34,2013-02-05 01:27:00,
2013-02-04 18:32:00,42.5,23.7,29.74,SW,233,22.0,22.0,47,0.00,CLR,CLR,0.00,WeatherDisplay:10.34,2013-02-05 01:32:00,
2013-02-04 18:37:00,42.6,23.8,29.74,SW,226,21.0,31.0,47,0.00,CLR,CLR,0.00,WeatherDisplay:10.34,2013-02-05 01:37:00,
2013-02-04 18:42:00,42.6,23.8,29.74,West,261,19.0,25.0,47,0.00,CLR,CLR,0.00,WeatherDisplay:10.34,2013-02-05 01:42:00,
2013-02-04 18:47:00,42.7,23.8,29.74,SSW,198,21.0,22.0,47,0.00,CLR,CLR,0.00,WeatherDisplay:10.34,2013-02-05 01:47:00,
2013-02-04 18:52:00,42.7,23.3,29.74,WSW,245,21.0,24.0,46,0.00,CLR,CLR,0.00,WeatherDisplay:10.34,2013-02-05 01:52:00,
2013-02-04 18:57:00,42.8,23.4,29.74,SW,227,18.0,18.0,46,0.00,CLR,CLR,0.00,WeatherDisplay:10.34,2013-02-05 01:57:00,
2013-02-04 19:02:00,42.9,23.5,29.75,WSW,249,14.0,15.0,46,0.00,CLR,CLR,0.00,WeatherDisplay:10.34,2013-02-05 02:02:00,
2013-02-04 19:07:00,43.1,23.2,29.75,WSW,242,19.0,20.0,45,0.00,CLR,CLR,0.00,WeatherDisplay:10.34,2013-02-05 02:07:00,
2013-02-04 19:12:00,43.3,23.4,29.76,West,274,22.0,31.0,45,0.00,CLR,CLR,0.00,WeatherDisplay:10.34,2013-02-05 02:12:00,
2013-02-04 19:17:00,43.5,23.0,29.76,WSW,244,20.0,26.0,44,0.00,CLR,CLR,0.00,WeatherDisplay:10.34,2013-02-05 02:17:00,
2013-02-04 19:22:00,43.7,22.6,29.77,West,263,20.0,20.0,43,0.00,CLR,CLR,0.00,WeatherDisplay:10.34,2013-02-05 02:22:00,
2013-02-04 19:27:00,43.9,22.8,29.76,West,274,17.0,26.0,43,0.00,CLR,CLR,0.00,WeatherDisplay:10.34,2013-02-05 02:27:00,
2013-02-04 19:32:00,43.9,22.8,29.77,West,264,21.0,24.0,43,0.00,CLR,CLR,0.00,WeatherDisplay:10.34,2013-02-05 02:32:00,
2013-02-04 19:37:00,44.0,22.9,29.77,SW,228,24.0,25.0,43,0.00,CLR,CLR,0.00,WeatherDisplay:10.34,2013-02-05 02:37:00,
2013-02-04 19:42:00,44.0,22.9,29.76,WSW,255,15.0,17.0,43,0.00,CLR,CLR,0.00,WeatherDisplay:10.34,2013-02-05 02:42:00,
2013-02-04 19:47:00,43.7,23.2,29.76,WSW,247,16.0,21.0,44,0.00,CLR,CLR,0.00,WeatherDisplay:10.34,2013-02-05 02:47:00,
2013-02-04 19:52:00,43.6,22.5,29.77,WSW,246,15.0,21.0,43,0.00,CLR,CLR,0.00,WeatherDisplay:10.34,2013-02-05 02:52:00,
2013-02-04 19:57:00,43.4,22.9,29.77,WSW,249,20.0,21.0,44,0.00,CLR,CLR,0.00,WeatherDisplay:10.34,2013-02-05 02:57:00,
2013-02-04 20:02:00,43.2,22.7,29.77,SW,236,14.0,17.0,44,0.00,CLR,CLR,0.00,WeatherDisplay:10.34,2013-02-05 03:02:00,
2013-02-04 20:07:00,43.0,22.5,29.77,WSW,257,14.0,17.0,44,0.00,CLR,CLR,0.00,WeatherDisplay:10.34,2013-02-05 03:07:00,
2013-02-04 20:12:00,43.0,22.5,29.77,WSW,241,18.0,21.0,44,0.00,CLR,CLR,0.00,WeatherDisplay:10.34,2013-02-05 03:12:00,
2013-02-04 20:17:00,43.0,22.5,29.77,West,260,17.0,20.0,44,0.00,CLR,CLR,0.00,WeatherDisplay:10.34,2013-02-05 03:17:00,
2013-02-04 20:22:00,43.0,23.1,29.78,NW,314,9.0,9.0,45,0.00,CLR,CLR,0.00,WeatherDisplay:10.34,2013-02-05 03:22:00,
2013-02-04 20:27:00,42.7,22.8,29.78,West,267,6.0,10.0,45,0.00,CLR,CLR,0.00,WeatherDisplay:10.34,2013-02-05 03:27:00,
2013-02-04 20:32:00,41.2,21.4,29.79,ENE,72,3.0,5.0,45,0.00,CLR,CLR,0.00,WeatherDisplay:10.34,2013-02-05 03:32:00,
2013-02-04 20:37:00,39.4,21.8,29.79,NE,41,5.0,5.0,49,0.00,CLR,CLR,0.00,WeatherDisplay:10.34,2013-02-05 03:37:00,
2013-02-04 20:42:00,38.6,21.5,29.78,ENE,63,0.0,0.0,50,0.00,CLR,CLR,0.00,WeatherDisplay:10.34,2013-02-05 03:42:00,
2013-02-04 20:47:00,37.7,21.2,29.78,ENE,69,4.0,8.0,51,0.00,CLR,CLR,0.00,WeatherDisplay:10.34,2013-02-05 03:47:00,
2013-02-04 20:52:00,36.9,21.3,29.79,ENE,74,1.0,1.0,53,0.00,CLR,CLR,0.00,WeatherDisplay:10.34,2013-02-05 03:52:00,
2013-02-04 20:57:00,36.1,21.0,29.79,NW,313,5.0,5.0,54,0.00,CLR,CLR,0.00,WeatherDisplay:10.34,2013-02-05 03:57:00,
2013-02-04 21:02:00,35.0,21.3,29.79,SE,130,6.0,9.0,57,0.00,CLR,CLR,0.00,WeatherDisplay:10.34,2013-02-05 04:02:00,
2013-02-04 21:07:00,37.3,21.7,29.81,SW,227,1.0,5.0,53,0.00,CLR,CLR,0.00,WeatherDisplay:10.34,2013-02-05 04:07:00,
2013-02-04 21:12:00,37.9,21.8,29.81,WNW,297,5.0,7.0,52,0.00,CLR,CLR,0.00,WeatherDisplay:10.34,2013-02-05 04:12:00,
2013-02-04 21:17:00,38.2,21.6,29.81,WNW,302,0.0,1.0,51,0.00,CLR,CLR,0.00,WeatherDisplay:10.34,2013-02-05 04:17:00,
2013-02-04 21:22:00,37.7,21.2,29.81,NE,35,10.0,10.0,51,0.00,CLR,CLR,0.00,WeatherDisplay:10.34,2013-02-05 04:22:00,
2013-02-04 21:27:00,36.0,20.5,29.80,NE,52,11.0,11.0,53,0.00,CLR,CLR,0.00,WeatherDisplay:10.34,2013-02-05 04:27:00,
2013-02-04 21:32:00,34.8,20.3,29.81,NE,54,7.0,9.0,55,0.00,CLR,CLR,0.00,WeatherDisplay:10.34,2013-02-05 04:32:00,
2013-02-04 21:37:00,33.0,19.8,29.81,NE,36,6.0,8.0,58,0.00,CLR,CLR,0.00,WeatherDisplay:10.34,2013-02-05 04:37:00,
2013-02-04 21:42:00,31.4,19.9,29.82,NE,48,8.0,8.0,62,0.00,CLR,CLR,0.00,WeatherDisplay:10.34,2013-02-05 04:42:00,
2013-02-04 21:47:00,30.6,19.5,29.82,North,355,10.0,10.0,63,0.00,CLR,CLR,0.00,WeatherDisplay:10.34,2013-02-05 04:47:00,
2013-02-04 21:52:00,30.2,19.5,29.82,NNW,348,2.0,2.0,64,0.00,CLR,CLR,0.00,WeatherDisplay:10.34,2013-02-05 04:52:00,
2013-02-04 21:57:00,30.1,19.7,29.82,NE,37,1.0,1.0,65,0.00,CLR,CLR,0.00,WeatherDisplay:10.34,2013-02-05 04:57:00,
2013-02-04 22:00:00,29.9,19.6,29.82,NNW,341,4.0,4.0,65,0.00,CLR,CLR,0.00,WeatherDisplay:10.34,2013-02-05 05:00:00,
2013-02-04 22:02:00,29.7,19.7,29.82,North,355,3.0,3.0,66,0.00,CLR,CLR,0.00,WeatherDisplay:10.34,2013-02-05 05:02:00,
2013-02-04 22:07:00,29.5,19.5,29.82,NE,53,4.0,7.0,66,0.00,CLR,CLR,0.00,WeatherDisplay:10.34,2013-02-05 05:07:00,
2013-02-04 22:12:00,29.3,19.3,29.82,NNE,26,5.0,7.0,66,0.00,CLR,CLR,0.00,WeatherDisplay:10.34,2013-02-05 05:12:00,
2013-02-04 22:17:00,29.0,19.4,29.82,ENE,78,3.0,3.0,67,0.00,CLR,CLR,0.00,WeatherDisplay:10.34,2013-02-05 05:17:00,
2013-02-04 22:22:00,28.9,19.3,29.82,NNE,28,6.0,8.0,67,0.00,CLR,CLR,0.00,WeatherDisplay:10.34,2013-02-05 05:22:00,
2013-02-04 22:27:00,28.8,19.2,29.82,East,79,0.0,1.0,67,0.00,CLR,CLR,0.00,WeatherDisplay:10.34,2013-02-05 05:27:00,
2013-02-04 22:32:00,28.7,19.5,29.82,ENE,59,2.0,3.0,68,0.00,CLR,CLR,0.00,WeatherDisplay:10.34,2013-02-05 05:32:00,
2013-02-04 22:37:00,28.6,19.4,29.82,ENE,67,0.0,0.0,68,0.00,CLR,CLR,0.00,WeatherDisplay:10.34,2013-02-05 05:37:00,
2013-02-04 22:42:00,28.4,19.2,29.82,ENE,67,0.0,0.0,68,0.00,CLR,CLR,0.00,WeatherDisplay:10.34,2013-02-05 05:42:00,
2013-02-04 22:48:00,28.2,19.0,29.82,NE,34,2.0,2.0,68,0.00,CLR,CLR,0.00,WeatherDisplay:10.34,2013-02-05 05:48:00,
2013-02-04 22:53:00,27.9,19.0,29.82,NE,34,1.0,2.0,69,0.00,CLR,CLR,0.00,WeatherDisplay:10.34,2013-02-05 05:53:00,
2013-02-04 22:58:00,27.6,19.1,29.82,NE,34,0.0,1.0,70,0.00,CLR,CLR,0.00,WeatherDisplay:10.34,2013-02-05 05:58:00,
2013-02-04 23:03:00,27.2,19.0,29.83,NNW,342,6.0,7.0,71,0.00,CLR,CLR,0.00,WeatherDisplay:10.34,2013-02-05 06:03:00,
2013-02-04 23:08:00,26.8,18.7,29.83,NNW,342,3.0,3.0,71,0.00,CLR,CLR,0.00,WeatherDisplay:10.34,2013-02-05 06:08:00,
2013-02-04 23:13:00,26.5,18.7,29.83,NNW,342,0.0,1.0,72,0.00,CLR,CLR,0.00,WeatherDisplay:10.34,2013-02-05 06:13:00,
2013-02-04 23:18:00,26.2,18.4,29.83,NNW,342,4.0,4.0,72,0.00,CLR,CLR,0.00,WeatherDisplay:10.34,2013-02-05 06:18:00,
2013-02-04 23:23:00,26.1,18.6,29.83,NNW,342,1.0,2.0,73,0.00,CLR,CLR,0.00,WeatherDisplay:10.34,2013-02-05 06:23:00,
2013-02-04 23:28:00,26.0,18.8,29.83,NNW,342,0.0,1.0,74,0.00,CLR,CLR,0.00,WeatherDisplay:10.34,2013-02-05 06:28:00,
2013-02-04 23:33:00,25.9,18.7,29.83,NNW,342,4.0,4.0,74,0.00,CLR,CLR,0.00,WeatherDisplay:10.34,2013-02-05 06:33:00,
2013-02-04 23:38:00,25.8,19.0,29.83,NNW,342,0.0,2.0,75,0.00,CLR,CLR,0.00,WeatherDisplay:10.34,2013-02-05 06:38:00,
2013-02-04 23:43:00,25.8,19.0,29.83,NNW,342,0.0,1.0,75,0.00,CLR,CLR,0.00,WeatherDisplay:10.34,2013-02-05 06:43:00,
2013-02-04 23:48:00,25.8,19.0,29.83,NNW,342,0.0,0.0,75,0.00,CLR,CLR,0.00,WeatherDisplay:10.34,2013-02-05 06:48:00,
2013-02-04 23:53:00,25.8,19.0,29.84,NNW,342,0.0,0.0,75,0.00,CLR,CLR,0.00,WeatherDisplay:10.34,2013-02-05 06:53:00,
2013-02-04 23:58:00,25.8,19.0,29.84,NNW,342,0.0,0.0,75,0.00,CLR,CLR,0.00,WeatherDisplay:10.34,2013-02-05 06:58:00,